Tracking 20242 objects as of 24-Jan-2020
HD Live streaming from Space Station
objects crossing your sky now

CZ-4B DEB

Track CZ-4B DEB now!
10-day predictions


NORAD ID: 43431
Int'l Code: 2017-034G
Perigee: 552.3 km
Apogee: 874.9 km
Inclination: 43.1 °
Period: 98.9 minutes
Semi major axis: 7084 km
RCS: Unknown
Launch date: June 15, 2017
Source: People's Republic of China (PRC)
Launch site: Jiuquan Satellite Launch Center, China (JSC)

Note: This is SATELLITE DEBRIS
aabbcc
Your satellite tracking list
Your tracking list is empty




NASA's NSSDC Master Catalog

Two Line Element Set (TLE):
1 43431U 17034G   20023.44548908  .00000376  00000-0  87863-4 0  9991
2 43431  43.1012 176.2699 0227697 197.3765 161.9171 14.55890282136380
Source of the keplerian elements: AFSPC